Hourly Data Report for October 31, 2013

All times are specified in Local Standard Time (LST). Add 1 hour to adjust for Daylight Saving Time where and when it is observed.

CAPE DORSET A
NUNAVUT

64°13'49.000" N
76°31'30.000" W
48.20 m
2400637
71366
YTE

Download Data

Hourly Data (October 2013)
Hourly Data Report for October 31, 2013
Temp Definition
°C
Dew Point Temp Definition
°C
Rel Hum Definition
%
Wind Dir Definition
10's deg

Wind Spd Definition
km/h
Visibility Definition
km
Stn Press Definition
kPa
Hmdx Definition


Wind Chill Definition


Weather Definition


TIME
00:00 Legend Double Dagger -11.1 -12.4 90 LegendMM 4 16.1 100.23   -14 LegendNANA
01:00 Legend Double Dagger -11.1 -12.8 87 4 8 16.1 100.25   -16 LegendNANA
02:00 Legend Double Dagger -10.8 -12.3 89 LegendMM 4 16.1 100.25   -13 LegendNANA
03:00 Legend Double Dagger -9.8 -11.3 89 1 11 16.1 100.22   -15 LegendNANA
04:00 Legend Double Dagger -9.7 -11.0 91 1 11 16.1 100.20   -15 LegendNANA
05:00 Legend Double Dagger -10.2 -11.0 94 4 13 16.1 100.19   -16 LegendNANA
06:00 Legend Double Dagger -10.2 -11.0 94 7 17 16.1 100.18   -17 LegendNANA
07:00 Legend Double Dagger -10.6 -11.3 95 6 9 16.1 100.20   -16 LegendNANA
08:00 Legend Double Dagger -10.4 -11.2 94 3 17 1.2 100.19   -18 LegendNANA
09:00 Legend Double Dagger -10.6 -11.4 94 2 13 16.1 100.17   -17 LegendNANA
10:00 Legend Double Dagger -10.0 -10.8 94 8 15 2.4 100.14   -17 LegendNANA
11:00 Legend Double Dagger -10.8 -11.9 92 7 15 4.8 100.12   -18 LegendNANA
12:00 Legend Double Dagger -10.5 -11.6 92 6 5 11.3 100.08   -14 LegendNANA
13:00 Legend Double Dagger -9.5 -10.5 93 5 9 16.1 100.05   -14 LegendNANA
14:00 Legend Double Dagger -8.2 -9.0 94 5 15 16.1 100.03   -15 LegendNANA
15:00 Legend Double Dagger -8.3 -9.2 93 4 17 16.1 100.04   -15 LegendNANA
16:00 Legend Double Dagger -8.9 -10.0 92 5 17 16.1 100.06   -16 LegendNANA
17:00 Legend Double Dagger -8.7 -10.3 88 3 21 16.1 100.07   -16 LegendNANA
18:00 Legend Double Dagger -8.3 -11.5 78 2 22 16.1 100.08   -16 LegendNANA
19:00 Legend Double Dagger -8.4 -9.8 90 2 18 16.1 100.10   -15 LegendNANA
20:00 Legend Double Dagger -8.0 -9.5 89 1 17 16.1 100.13   -15 LegendNANA
21:00 Legend Double Dagger -7.8 -8.5 95 1 22 16.1 100.10   -15 LegendNANA
22:00 Legend Double Dagger -7.3 -8.1 94 36 24 16.1 100.08   -15 LegendNANA
23:00 Legend Double Dagger -7.1 -8.5 90 1 13 16.1 100.07   -13 LegendNANA

Notes on Data Quality.

Legend

  • E = Estimated
  • M = Missing
  • NA = Not Available
  • ‡ = Partner data that is not subject to review by the National Climate Archives
Date modified: